Weather in Golovnoye

Russia / Kurgan Oblast     55°18′20″N   66°48′39″E
temp.,
°C
wind,
m/s
gust,
m/s
humid.,
%
clouds,
%
prec.,
mm/h
press.,
hPa
HPBL,
m
11 may, tue
tue1123:00+12ene3444100 0.0 102552
02:00+10ne224930 0.0 102511
05:00+9nne22525 0.0 102714
08:00+15n34405 0.0 1027365
11:00+19ne34280 0.0 10271610
14:00+21n33230 0.0 10261963
17:00+22nnw3423100 0.0 10262032
20:00+18nnw333427 0.0 102722
12 may, wed
wed1223:00+15nnw3338100 0.0 102734
02:00+13nw334332 0.0 102730
05:00+11wnw454842 0.0 102762
08:00+17wnw573676 0.0 1027334
11:00+22wnw672755 0.0 10261098
14:00+23nnw7937100 0.0 10252285
17:00+22n8933100 0.0 10252090
20:00+18n484481 0.0 1026186
13 may, thu
thu1323:00+15n3351100 0.0 102634
02:00+13wnw33575 0.0 102620
05:00+13w346193 0.0 102663
08:00+19wnw694617 0.0 1025526
11:00+23nw79365 0.0 10241899
14:00+25nnw783038 0.0 10232287
17:00+25nnw793212 0.0 10232569
20:00+21nnw344450 0.0 102347
14 may, fri
fri1423:00+18nne335998 0.0 102549
02:00+16nne22705 0.0 102611
05:00+14ne11785 0.0 102710
08:00+19sse005630 0.0 1027360
11:00+24w23385 0.0 10271457
14:00+27wnw453033 0.0 10252801
17:00+28w572721 0.0 10232835
20:00+24wsw343692 0.0 102343
15 may, sat
sat1523:00+21w33433 0.0 102330
02:00+19w3347100 0.0 102242
05:00+18wnw3351100 0.0 102338
08:00+23w454198 0.0 1022284
11:00+28wnw453031 0.0 10211532
14:00+30wnw562417 0.0 10202779
17:00+29w67225 0.0 10192793
20:00+24nw33370 0.0 101844